This is the latest recevied weather packets stored in our database for station/object KD8DNS. If no packets are shown the sender has not sent any weather packets the latest 10 day(s).
| Time | Temp. | Humidity | Pressure | Rain* | Wind** | Luminosity | Snow |
|---|---|---|---|---|---|---|---|
| 1787952366 | 27.22° C | 59% | 1022.2 hPa | 0 mm | - | 70 W/m² | - |
| 1787952063 | 27.78° C | 57% | 1022 hPa | 0 mm | - | 55 W/m² | - |
| 1787951762 | 27.78° C | 57% | 1022 hPa | 0 mm | - | 66 W/m² | - |
| 1787951458 | 27.78° C | 59% | 1022 hPa | 0 mm | - | 76 W/m² | - |
| 1787951154 | 27.78° C | 59% | 1021.8 hPa | 0 mm | - | 90 W/m² | - |
| 1787950849 | 27.78° C | 58% | 1022 hPa | 0 mm | - | 80 W/m² | - |
| 1787950544 | 27.22° C | 58% | 1022 hPa | 0 mm | - | 80 W/m² | - |
| 1787950241 | 26.67° C | 59% | 1022.1 hPa | 0 mm | - | 85 W/m² | - |
| 1787949940 | 26.67° C | 61% | 1022.3 hPa | 0 mm | - | 78 W/m² | - |
| 1787949637 | 27.22° C | 61% | 1022.1 hPa | 0 mm | - | 80 W/m² | - |
| 1787949332 | 27.78° C | 58% | 1022 hPa | 0 mm | - | 87 W/m² | - |
| 1787949026 | 28.33° C | 57% | 1022.2 hPa | 0 mm | - | 184 W/m² | - |
| 1787948722 | 27.78° C | 60% | 1022.1 hPa | 0 mm | - | 113 W/m² | - |
| 1787948417 | 27.22° C | 61% | 1022.1 hPa | 0 mm | - | 111 W/m² | - |
| 1787948112 | 27.78° C | 59% | 1022.2 hPa | 0 mm | - | 108 W/m² | - |
| 1787947806 | 28.89° C | 56% | 1022.1 hPa | 0 mm | - | 147 W/m² | - |
| 1787947505 | 28.89° C | 55% | 1022.1 hPa | 0 mm | - | 555 W/m² | - |
| 1787947213 | 28.89° C | 56% | 1022.2 hPa | 0 mm | - | 571 W/m² | - |
| 1787946904 | 28.33° C | 53% | 1022.1 hPa | 0 mm | - | 576 W/m² | - |
| 1787946602 | 28.89° C | 55% | 1022.3 hPa | 0 mm | - | 533 W/m² | - |
| 1787946298 | 28.33° C | 55% | 1022.4 hPa | 0 mm | - | 514 W/m² | - |
| 1787945992 | 28.33° C | 55% | 1022.4 hPa | 0 mm | - | 548 W/m² | - |
| 1787945686 | 27.78° C | 57% | 1022.3 hPa | 0 mm | - | 551 W/m² | - |
| 1787945381 | 27.78° C | 58% | 1022.4 hPa | 0 mm | - | 104 W/m² | - |
| 1787945077 | 27.22° C | 58% | 1022.7 hPa | 0 mm | - | 618 W/m² | - |
* Rain latest hour (hover to see other rain measurements)
** Current wind speed in m/s (hover to see current wind gust speed)